Location: Unspecified
(0.0000°N, 0.0000°E)
Time: 22:53:38
(UTC+00:00)

Courier 1B Rocket - Pass Details

Date: 01 October 2020
Orbit: 920 x 1202 km, 28.2° (Epoch: 28 October)

Event Time Altitude Azimuth Distance (km) Brightness Sun altitude
Rises 01:07:15 0° 235° (SW) 4,007 - -70.3°
Reaches altitude 10° 01:10:09 10° 233° (SW) 3,010 - -69.6°
Maximum altitude 01:17:32 71° 150° (SSE) 1,131 - -67.8°
Drops below altitude 10° 01:24:21 10° 67° (ENE) 2,795 - -66.1°
Sets 01:26:57 0° 65° (ENE) 3,704 - -65.5°
